LOCATION_NAME,SAMPLE COLLECTION TIME,DOSE EQUIVALENT RATE (nSv/h),GAMMA COUNT RATE R02 (CPM),GAMMA COUNT RATE R03 (CPM),GAMMA COUNT RATE R04 (CPM),GAMMA COUNT RATE R05 (CPM),GAMMA COUNT RATE R06 (CPM),GAMMA COUNT RATE R07 (CPM),GAMMA COUNT RATE R08 (CPM),GAMMA COUNT RATE R09 (CPM),STATUS
NE: LINCOLN,01/01/2021 00:12:00,,2290.00,1322.00,362.00,204.00,122.00,151.00,88.00,30.00,APPROVED
NE: LINCOLN,01/01/2021 01:13:00,,2307.00,1347.00,365.00,211.00,123.00,151.00,89.00,29.00,APPROVED
NE: LINCOLN,01/01/2021 02:13:00,,2355.00,1390.00,379.00,217.00,123.00,158.00,91.00,31.00,APPROVED
NE: LINCOLN,01/01/2021 03:13:00,,2377.00,1429.00,388.00,232.00,128.00,165.00,91.00,32.00,APPROVED
NE: LINCOLN,01/01/2021 04:13:00,,2396.00,1452.00,392.00,236.00,132.00,170.00,96.00,32.00,APPROVED
NE: LINCOLN,01/01/2021 05:14:00,,2400.00,1469.00,397.00,242.00,135.00,172.00,96.00,33.00,APPROVED
NE: LINCOLN,01/01/2021 06:14:00,,2428.00,1507.00,406.00,248.00,136.00,174.00,98.00,33.00,APPROVED
NE: LINCOLN,01/01/2021 07:14:00,,2496.00,1566.00,423.00,269.00,142.00,186.00,103.00,35.00,APPROVED
NE: LINCOLN,01/01/2021 08:14:00,,2540.00,1648.00,441.00,287.00,151.00,193.00,108.00,34.00,APPROVED
NE: LINCOLN,01/01/2021 09:14:00,,2582.00,1736.00,465.00,310.00,157.00,212.00,114.00,37.00,APPROVED
NE: LINCOLN,01/01/2021 10:15:00,,2666.00,1811.00,483.00,327.00,163.00,225.00,119.00,39.00,APPROVED
NE: LINCOLN,01/01/2021 11:15:00,,2677.00,1856.00,501.00,347.00,168.00,227.00,124.00,38.00,APPROVED
NE: LINCOLN,01/01/2021 12:15:00,,2721.00,1881.00,509.00,355.00,172.00,234.00,127.00,39.00,APPROVED
NE: LINCOLN,01/01/2021 13:15:00,,2693.00,1859.00,499.00,348.00,170.00,236.00,124.00,39.00,APPROVED
NE: LINCOLN,01/01/2021 14:15:00,,2658.00,1820.00,491.00,336.00,163.00,222.00,122.00,39.00,APPROVED
NE: LINCOLN,01/01/2021 15:16:00,,2571.00,1714.00,466.00,314.00,155.00,212.00,117.00,38.00,APPROVED
NE: LINCOLN,01/01/2021 16:16:00,,2550.00,1655.00,449.00,302.00,152.00,203.00,112.00,36.00,APPROVED
NE: LINCOLN,01/01/2021 17:16:00,,2495.00,1615.00,435.00,291.00,147.00,197.00,110.00,35.00,APPROVED
NE: LINCOLN,01/01/2021 18:16:00,,2494.00,1596.00,434.00,277.00,147.00,194.00,108.00,36.00,APPROVED
NE: LINCOLN,01/01/2021 19:17:00,,2504.00,1597.00,429.00,278.00,144.00,189.00,108.00,36.00,APPROVED
NE: LINCOLN,01/01/2021 20:17:00,,2498.00,1574.00,430.00,272.00,143.00,184.00,106.00,35.00,APPROVED
NE: LINCOLN,01/01/2021 21:17:00,,2482.00,1569.00,423.00,271.00,145.00,186.00,107.00,36.00,APPROVED
NE: LINCOLN,01/01/2021 22:17:00,,2585.00,1636.00,438.00,275.00,149.00,193.00,110.00,35.00,APPROVED
NE: LINCOLN,01/01/2021 23:17:00,,2765.00,1777.00,465.00,306.00,154.00,201.00,114.00,38.00,APPROVED
NE: LINCOLN,01/02/2021 00:18:00,,2813.00,1822.00,486.00,318.00,165.00,213.00,123.00,38.00,APPROVED
NE: LINCOLN,01/02/2021 01:18:00,,2824.00,1852.00,490.00,324.00,163.00,212.00,123.00,38.00,APPROVED
NE: LINCOLN,01/02/2021 02:18:00,,2850.00,1863.00,492.00,324.00,166.00,221.00,120.00,39.00,APPROVED
NE: LINCOLN,01/02/2021 03:18:00,,2897.00,1892.00,503.00,331.00,164.00,223.00,122.00,38.00,APPROVED
NE: LINCOLN,01/02/2021 04:18:00,,2953.00,1956.00,512.00,346.00,169.00,232.00,123.00,38.00,APPROVED
NE: LINCOLN,01/02/2021 05:19:00,,3012.00,2031.00,536.00,361.00,174.00,242.00,128.00,41.00,APPROVED
NE: LINCOLN,01/02/2021 06:19:00,,3002.00,2025.00,534.00,360.00,175.00,242.00,128.00,41.00,APPROVED
NE: LINCOLN,01/02/2021 07:19:00,,2974.00,2013.00,535.00,362.00,176.00,240.00,129.00,41.00,APPROVED
NE: LINCOLN,01/02/2021 08:19:00,,2977.00,2046.00,536.00,367.00,177.00,244.00,128.00,43.00,APPROVED
NE: LINCOLN,01/02/2021 09:20:00,,2988.00,2045.00,544.00,368.00,176.00,244.00,132.00,41.00,APPROVED
NE: LINCOLN,01/02/2021 10:20:00,,2975.00,2026.00,539.00,363.00,175.00,240.00,128.00,42.00,APPROVED
NE: LINCOLN,01/02/2021 11:20:00,,2993.00,2067.00,547.00,377.00,182.00,247.00,133.00,42.00,APPROVED
NE: LINCOLN,01/02/2021 12:20:00,,3016.00,2106.00,560.00,387.00,183.00,254.00,134.00,44.00,APPROVED
NE: LINCOLN,01/02/2021 13:20:00,,3043.00,2186.00,586.00,409.00,190.00,268.00,141.00,44.00,APPROVED
NE: LINCOLN,01/02/2021 14:21:00,,3074.00,2256.00,602.00,435.00,199.00,282.00,144.00,45.00,APPROVED
NE: LINCOLN,01/02/2021 15:21:00,,3114.00,2307.00,618.00,445.00,201.00,289.00,151.00,48.00,APPROVED
NE: LINCOLN,01/02/2021 16:21:00,,3125.00,2303.00,619.00,443.00,201.00,291.00,148.00,47.00,APPROVED
NE: LINCOLN,01/02/2021 17:21:00,,3150.00,2347.00,629.00,464.00,205.00,292.00,155.00,49.00,APPROVED
NE: LINCOLN,01/02/2021 18:22:00,,3099.00,2292.00,612.00,447.00,202.00,288.00,152.00,47.00,APPROVED
NE: LINCOLN,01/02/2021 19:22:00,,3024.00,2137.00,577.00,405.00,192.00,266.00,141.00,46.00,APPROVED
NE: LINCOLN,01/02/2021 20:22:00,,2815.00,1914.00,518.00,355.00,176.00,231.00,130.00,42.00,APPROVED
NE: LINCOLN,01/02/2021 21:22:00,,2713.00,1781.00,484.00,320.00,160.00,217.00,122.00,37.00,APPROVED
NE: LINCOLN,01/02/2021 22:22:00,,2722.00,1774.00,475.00,312.00,159.00,209.00,119.00,38.00,APPROVED
NE: LINCOLN,01/02/2021 23:23:00,,2721.00,1788.00,476.00,315.00,159.00,213.00,118.00,38.00,APPROVED
NE: LINCOLN,01/03/2021 00:23:00,,2755.00,1812.00,480.00,318.00,161.00,215.00,120.00,39.00,APPROVED
NE: LINCOLN,01/03/2021 01:23:00,,2787.00,1831.00,485.00,320.00,162.00,220.00,120.00,38.00,APPROVED
NE: LINCOLN,01/03/2021 02:23:00,,3007.00,2009.00,528.00,351.00,174.00,234.00,127.00,42.00,APPROVED
NE: LINCOLN,01/03/2021 03:23:00,,3038.00,2109.00,555.00,379.00,181.00,251.00,137.00,43.00,APPROVED
NE: LINCOLN,01/03/2021 04:24:00,,3024.00,2132.00,560.00,395.00,186.00,254.00,141.00,45.00,APPROVED
NE: LINCOLN,01/03/2021 05:24:00,,3120.00,2286.00,599.00,437.00,199.00,285.00,150.00,45.00,APPROVED
NE: LINCOLN,01/03/2021 06:24:00,,3079.00,2271.00,606.00,442.00,201.00,285.00,150.00,46.00,APPROVED
NE: LINCOLN,01/03/2021 07:24:00,,3150.00,2395.00,632.00,472.00,212.00,303.00,159.00,48.00,APPROVED
NE: LINCOLN,01/03/2021 08:25:00,,3073.00,2313.00,619.00,464.00,203.00,297.00,152.00,48.00,APPROVED
NE: LINCOLN,01/03/2021 09:25:00,,2984.00,2192.00,591.00,433.00,195.00,279.00,145.00,48.00,APPROVED
NE: LINCOLN,01/03/2021 10:25:00,,2959.00,2172.00,579.00,424.00,196.00,277.00,146.00,46.00,APPROVED
NE: LINCOLN,01/03/2021 11:25:00,,2884.00,2052.00,550.00,389.00,181.00,252.00,139.00,43.00,APPROVED
NE: LINCOLN,01/03/2021 12:25:00,,2798.00,1916.00,521.00,351.00,173.00,231.00,125.00,41.00,APPROVED
NE: LINCOLN,01/03/2021 13:26:00,,2799.00,1872.00,506.00,336.00,162.00,222.00,124.00,40.00,APPROVED
NE: LINCOLN,01/03/2021 14:26:00,,2793.00,1836.00,492.00,321.00,161.00,219.00,117.00,39.00,APPROVED
NE: LINCOLN,01/03/2021 15:26:00,,2776.00,1802.00,482.00,313.00,159.00,209.00,117.00,40.00,APPROVED
NE: LINCOLN,01/03/2021 16:26:00,,2768.00,1794.00,479.00,306.00,158.00,207.00,116.00,39.00,APPROVED
NE: LINCOLN,01/03/2021 17:26:00,,2819.00,1822.00,481.00,315.00,157.00,211.00,118.00,38.00,APPROVED
NE: LINCOLN,01/03/2021 18:27:00,,2860.00,1860.00,498.00,320.00,164.00,217.00,121.00,41.00,APPROVED
NE: LINCOLN,01/03/2021 19:27:00,,2883.00,1891.00,504.00,327.00,165.00,223.00,123.00,40.00,APPROVED
NE: LINCOLN,01/03/2021 20:27:00,,2794.00,1824.00,496.00,317.00,163.00,216.00,120.00,39.00,APPROVED
NE: LINCOLN,01/03/2021 21:27:00,,2699.00,1735.00,468.00,295.00,154.00,204.00,115.00,38.00,APPROVED
NE: LINCOLN,01/03/2021 22:28:00,,2682.00,1716.00,455.00,293.00,153.00,198.00,113.00,39.00,APPROVED
NE: LINCOLN,01/03/2021 23:28:00,,2690.00,1733.00,462.00,297.00,152.00,199.00,115.00,37.00,APPROVED
NE: LINCOLN,01/04/2021 00:28:00,,2687.00,1745.00,464.00,302.00,153.00,200.00,116.00,39.00,APPROVED
NE: LINCOLN,01/04/2021 01:28:00,,2671.00,1719.00,461.00,299.00,153.00,197.00,114.00,39.00,APPROVED
NE: LINCOLN,01/04/2021 02:28:00,,2652.00,1710.00,463.00,288.00,149.00,194.00,116.00,38.00,APPROVED
NE: LINCOLN,01/04/2021 03:29:00,,2663.00,1693.00,451.00,292.00,150.00,194.00,114.00,38.00,APPROVED
NE: LINCOLN,01/04/2021 04:29:00,,2659.00,1693.00,452.00,289.00,150.00,197.00,112.00,37.00,APPROVED
NE: LINCOLN,01/04/2021 05:29:00,,2663.00,1719.00,459.00,293.00,147.00,201.00,114.00,38.00,APPROVED
NE: LINCOLN,01/04/2021 06:29:00,,2648.00,1700.00,450.00,286.00,151.00,196.00,111.00,38.00,APPROVED
NE: LINCOLN,01/04/2021 07:29:00,,2619.00,1665.00,445.00,280.00,148.00,192.00,109.00,38.00,APPROVED
NE: LINCOLN,01/04/2021 08:30:00,,2597.00,1644.00,443.00,278.00,149.00,191.00,106.00,35.00,APPROVED
NE: LINCOLN,01/04/2021 09:30:00,,2587.00,1644.00,444.00,278.00,145.00,189.00,109.00,36.00,APPROVED
NE: LINCOLN,01/04/2021 10:30:00,,2676.00,1688.00,456.00,288.00,148.00,196.00,110.00,37.00,APPROVED
NE: LINCOLN,01/04/2021 11:30:00,,2874.00,1894.00,499.00,327.00,159.00,220.00,119.00,39.00,APPROVED
NE: LINCOLN,01/04/2021 12:31:00,,2934.00,1982.00,528.00,351.00,172.00,233.00,127.00,40.00,APPROVED
NE: LINCOLN,01/04/2021 13:31:00,,3097.00,2183.00,568.00,392.00,191.00,256.00,138.00,45.00,APPROVED
NE: LINCOLN,01/04/2021 14:31:00,,3051.00,2164.00,574.00,398.00,190.00,258.00,140.00,45.00,APPROVED
NE: LINCOLN,01/04/2021 15:31:00,,2793.00,1920.00,515.00,355.00,172.00,233.00,127.00,41.00,APPROVED
NE: LINCOLN,01/04/2021 16:31:00,,2447.00,1568.00,434.00,278.00,146.00,185.00,110.00,36.00,APPROVED
NE: LINCOLN,01/04/2021 17:32:00,,2247.00,1375.00,389.00,230.00,131.00,169.00,99.00,32.00,APPROVED
NE: LINCOLN,01/04/2021 18:32:00,,2140.00,1290.00,366.00,211.00,122.00,150.00,93.00,32.00,APPROVED
NE: LINCOLN,01/04/2021 19:46:00,,2060.00,1153.00,330.00,172.00,111.00,136.00,83.00,28.00,APPROVED
NE: LINCOLN,01/04/2021 20:46:00,,2038.00,1156.00,331.00,177.00,114.00,137.00,82.00,30.00,APPROVED
NE: LINCOLN,01/04/2021 21:47:00,,2037.00,1156.00,329.00,179.00,114.00,138.00,85.00,30.00,APPROVED
NE: LINCOLN,01/04/2021 22:47:00,,2081.00,1177.00,335.00,183.00,114.00,138.00,86.00,30.00,APPROVED
NE: LINCOLN,01/04/2021 23:47:00,,2125.00,1217.00,339.00,185.00,112.00,137.00,84.00,28.00,APPROVED
NE: LINCOLN,01/05/2021 00:47:00,,2200.00,1247.00,347.00,189.00,119.00,146.00,87.00,29.00,APPROVED
NE: LINCOLN,01/05/2021 01:48:00,,2263.00,1291.00,353.00,199.00,122.00,146.00,85.00,29.00,APPROVED
NE: LINCOLN,01/05/2021 02:48:00,,2281.00,1318.00,359.00,201.00,118.00,149.00,89.00,29.00,APPROVED
NE: LINCOLN,01/05/2021 03:48:00,,2287.00,1333.00,360.00,208.00,120.00,149.00,89.00,30.00,APPROVED
NE: LINCOLN,01/05/2021 04:48:00,,2302.00,1338.00,363.00,205.00,122.00,151.00,89.00,30.00,APPROVED
NE: LINCOLN,01/05/2021 05:48:00,,2317.00,1357.00,367.00,209.00,124.00,156.00,90.00,30.00,APPROVED
NE: LINCOLN,01/05/2021 06:49:00,,2314.00,1358.00,368.00,212.00,123.00,156.00,92.00,33.00,APPROVED
NE: LINCOLN,01/05/2021 07:49:00,,2323.00,1378.00,378.00,220.00,127.00,160.00,92.00,32.00,APPROVED
NE: LINCOLN,01/05/2021 08:49:00,,2320.00,1377.00,376.00,218.00,127.00,161.00,93.00,31.00,APPROVED
NE: LINCOLN,01/05/2021 09:49:00,,2331.00,1400.00,378.00,223.00,130.00,162.00,94.00,31.00,APPROVED
NE: LINCOLN,01/05/2021 10:50:00,,2364.00,1416.00,382.00,226.00,131.00,169.00,95.00,31.00,APPROVED
NE: LINCOLN,01/05/2021 11:50:00,,2349.00,1402.00,383.00,226.00,128.00,163.00,93.00,32.00,APPROVED
NE: LINCOLN,01/05/2021 12:50:00,,2353.00,1422.00,384.00,228.00,130.00,164.00,95.00,32.00,APPROVED
NE: LINCOLN,01/05/2021 13:50:00,,2352.00,1407.00,385.00,230.00,127.00,164.00,95.00,31.00,APPROVED
NE: LINCOLN,01/05/2021 14:50:00,,2299.00,1356.00,369.00,217.00,128.00,160.00,94.00,31.00,APPROVED
NE: LINCOLN,01/05/2021 15:51:00,,2261.00,1320.00,365.00,207.00,126.00,151.00,92.00,30.00,APPROVED
NE: LINCOLN,01/05/2021 16:51:00,,2246.00,1300.00,361.00,204.00,123.00,151.00,90.00,31.00,APPROVED
NE: LINCOLN,01/05/2021 17:51:00,,2218.00,1286.00,357.00,202.00,122.00,145.00,90.00,29.00,APPROVED
NE: LINCOLN,01/05/2021 18:51:00,,2227.00,1291.00,357.00,199.00,123.00,148.00,89.00,30.00,APPROVED
NE: LINCOLN,01/05/2021 19:51:00,,2224.00,1295.00,363.00,202.00,120.00,148.00,91.00,30.00,APPROVED
NE: LINCOLN,01/05/2021 20:52:00,,2190.00,1287.00,355.00,200.00,124.00,148.00,92.00,30.00,APPROVED
NE: LINCOLN,01/05/2021 21:52:00,,2238.00,1301.00,359.00,201.00,123.00,151.00,91.00,29.00,APPROVED
NE: LINCOLN,01/05/2021 22:52:00,,2248.00,1305.00,359.00,205.00,124.00,150.00,92.00,30.00,APPROVED
NE: LINCOLN,01/05/2021 23:52:00,,2278.00,1316.00,362.00,201.00,123.00,152.00,93.00,31.00,APPROVED
NE: LINCOLN,01/06/2021 00:53:00,,2311.00,1332.00,365.00,205.00,124.00,153.00,91.00,31.00,APPROVED
NE: LINCOLN,01/06/2021 01:53:00,,2302.00,1333.00,370.00,207.00,129.00,151.00,93.00,30.00,APPROVED
NE: LINCOLN,01/06/2021 02:53:00,,2307.00,1332.00,368.00,209.00,126.00,157.00,93.00,29.00,APPROVED
NE: LINCOLN,01/06/2021 03:53:00,,2460.00,1487.00,402.00,236.00,138.00,170.00,100.00,32.00,APPROVED
NE: LINCOLN,01/06/2021 04:53:00,,2536.00,1559.00,425.00,254.00,139.00,180.00,105.00,33.00,APPROVED
NE: LINCOLN,01/06/2021 05:54:00,,2395.00,1420.00,396.00,230.00,134.00,165.00,98.00,33.00,APPROVED
NE: LINCOLN,01/06/2021 06:54:00,,2343.00,1362.00,373.00,213.00,127.00,155.00,95.00,29.00,APPROVED
NE: LINCOLN,01/06/2021 07:54:00,,2374.00,1387.00,376.00,216.00,128.00,156.00,95.00,31.00,APPROVED
NE: LINCOLN,01/06/2021 08:54:00,,2384.00,1403.00,387.00,221.00,129.00,161.00,95.00,30.00,APPROVED
NE: LINCOLN,01/06/2021 09:55:00,,2354.00,1382.00,384.00,215.00,130.00,160.00,94.00,31.00,APPROVED
NE: LINCOLN,01/06/2021 10:55:00,,2351.00,1380.00,379.00,216.00,131.00,161.00,96.00,32.00,APPROVED
NE: LINCOLN,01/06/2021 11:55:00,,2355.00,1373.00,379.00,215.00,126.00,160.00,96.00,31.00,APPROVED
NE: LINCOLN,01/06/2021 12:55:00,,2328.00,1354.00,381.00,214.00,129.00,159.00,96.00,32.00,APPROVED
NE: LINCOLN,01/06/2021 13:56:00,,2378.00,1411.00,386.00,223.00,132.00,159.00,96.00,33.00,APPROVED
NE: LINCOLN,01/06/2021 14:56:00,,2385.00,1407.00,388.00,225.00,128.00,162.00,96.00,33.00,APPROVED
NE: LINCOLN,01/06/2021 15:56:00,,2365.00,1399.00,388.00,226.00,131.00,162.00,100.00,32.00,APPROVED
NE: LINCOLN,01/06/2021 16:56:00,,2495.00,1516.00,416.00,248.00,139.00,175.00,104.00,34.00,APPROVED
NE: LINCOLN,01/06/2021 17:56:00,,2475.00,1504.00,407.00,245.00,140.00,175.00,106.00,33.00,APPROVED
NE: LINCOLN,01/06/2021 19:57:00,,2441.00,1465.00,402.00,237.00,134.00,170.00,101.00,33.00,APPROVED
NE: LINCOLN,01/06/2021 20:57:00,,2416.00,1434.00,393.00,234.00,134.00,163.00,99.00,32.00,APPROVED
NE: LINCOLN,01/06/2021 21:57:00,,2378.00,1426.00,392.00,225.00,134.00,163.00,97.00,32.00,APPROVED
NE: LINCOLN,01/06/2021 22:58:00,,2384.00,1396.00,384.00,224.00,131.00,162.00,97.00,31.00,APPROVED
NE: LINCOLN,01/06/2021 23:58:00,,2348.00,1378.00,376.00,219.00,132.00,163.00,97.00,31.00,APPROVED
NE: LINCOLN,01/07/2021 00:58:00,,2346.00,1376.00,381.00,216.00,129.00,159.00,96.00,31.00,APPROVED
NE: LINCOLN,01/07/2021 01:58:00,,2384.00,1419.00,388.00,229.00,131.00,163.00,97.00,31.00,APPROVED
NE: LINCOLN,01/07/2021 02:58:00,,2460.00,1514.00,413.00,251.00,141.00,177.00,105.00,32.00,APPROVED
NE: LINCOLN,01/07/2021 03:59:00,,2507.00,1565.00,430.00,262.00,144.00,182.00,108.00,34.00,APPROVED
NE: LINCOLN,01/07/2021 04:59:00,,2646.00,1678.00,457.00,286.00,152.00,199.00,112.00,36.00,APPROVED
NE: LINCOLN,01/07/2021 05:59:00,,2568.00,1614.00,443.00,270.00,149.00,189.00,109.00,35.00,APPROVED
NE: LINCOLN,01/07/2021 06:59:00,,2504.00,1549.00,430.00,256.00,143.00,185.00,103.00,33.00,APPROVED
NE: LINCOLN,01/07/2021 08:00:00,,2476.00,1524.00,418.00,251.00,139.00,179.00,104.00,33.00,APPROVED
NE: LINCOLN,01/07/2021 09:00:00,,2472.00,1506.00,414.00,245.00,138.00,176.00,103.00,33.00,APPROVED
NE: LINCOLN,01/07/2021 10:00:00,,2585.00,1623.00,439.00,267.00,149.00,189.00,109.00,35.00,APPROVED
NE: LINCOLN,01/07/2021 11:00:00,,2681.00,1723.00,472.00,294.00,157.00,209.00,117.00,36.00,APPROVED
NE: LINCOLN,01/07/2021 12:00:00,,2599.00,1638.00,448.00,285.00,151.00,196.00,110.00,35.00,APPROVED
NE: LINCOLN,01/07/2021 13:01:00,,2556.00,1636.00,444.00,282.00,146.00,196.00,111.00,36.00,APPROVED
NE: LINCOLN,01/07/2021 14:01:00,,2524.00,1573.00,429.00,274.00,147.00,190.00,108.00,35.00,APPROVED
NE: LINCOLN,01/07/2021 15:01:00,,2511.00,1573.00,427.00,267.00,145.00,185.00,108.00,36.00,APPROVED
NE: LINCOLN,01/07/2021 16:01:00,,2477.00,1553.00,419.00,263.00,144.00,186.00,108.00,35.00,APPROVED
NE: LINCOLN,01/07/2021 17:02:00,,2483.00,1552.00,426.00,265.00,143.00,186.00,108.00,34.00,APPROVED
NE: LINCOLN,01/07/2021 18:02:00,,2484.00,1555.00,424.00,267.00,146.00,186.00,108.00,34.00,APPROVED
NE: LINCOLN,01/07/2021 19:02:00,,2459.00,1535.00,424.00,260.00,145.00,180.00,104.00,34.00,APPROVED
NE: LINCOLN,01/07/2021 20:02:00,,2449.00,1527.00,421.00,258.00,144.00,179.00,107.00,33.00,APPROVED
NE: LINCOLN,01/07/2021 21:03:00,,2429.00,1498.00,412.00,253.00,140.00,179.00,109.00,35.00,APPROVED
NE: LINCOLN,01/07/2021 22:03:00,,2401.00,1478.00,406.00,248.00,137.00,178.00,102.00,33.00,APPROVED
NE: LINCOLN,01/07/2021 23:03:00,,2392.00,1456.00,403.00,244.00,136.00,175.00,102.00,33.00,APPROVED
NE: LINCOLN,01/08/2021 00:03:00,,2377.00,1446.00,401.00,236.00,139.00,168.00,102.00,32.00,APPROVED
NE: LINCOLN,01/08/2021 01:03:00,,2371.00,1425.00,392.00,231.00,133.00,169.00,99.00,31.00,APPROVED
NE: LINCOLN,01/08/2021 02:04:00,,2369.00,1425.00,392.00,233.00,134.00,165.00,99.00,32.00,APPROVED
NE: LINCOLN,01/08/2021 03:04:00,,2385.00,1440.00,400.00,231.00,135.00,168.00,98.00,33.00,APPROVED
NE: LINCOLN,01/08/2021 04:04:00,,2406.00,1448.00,400.00,235.00,134.00,171.00,101.00,33.00,APPROVED
NE: LINCOLN,01/08/2021 05:04:00,,2402.00,1470.00,403.00,240.00,135.00,170.00,99.00,33.00,APPROVED
NE: LINCOLN,01/08/2021 06:04:00,,2448.00,1495.00,412.00,247.00,139.00,177.00,103.00,33.00,APPROVED
NE: LINCOLN,01/08/2021 07:05:00,,2487.00,1543.00,418.00,261.00,142.00,185.00,105.00,34.00,APPROVED
NE: LINCOLN,01/08/2021 08:05:00,,2495.00,1565.00,428.00,268.00,147.00,188.00,105.00,35.00,APPROVED
NE: LINCOLN,01/08/2021 09:05:00,,2493.00,1582.00,431.00,269.00,146.00,188.00,106.00,34.00,APPROVED
NE: LINCOLN,01/08/2021 10:05:00,,2582.00,1671.00,450.00,291.00,153.00,201.00,113.00,36.00,APPROVED
NE: LINCOLN,01/08/2021 11:06:00,,2571.00,1669.00,457.00,296.00,156.00,201.00,112.00,37.00,APPROVED
NE: LINCOLN,01/08/2021 12:06:00,,2602.00,1679.00,452.00,296.00,153.00,203.00,112.00,36.00,APPROVED
NE: LINCOLN,01/08/2021 13:06:00,,2618.00,1736.00,469.00,306.00,159.00,216.00,118.00,38.00,APPROVED
NE: LINCOLN,01/08/2021 14:06:00,,2668.00,1779.00,481.00,315.00,162.00,219.00,121.00,37.00,APPROVED
NE: LINCOLN,01/08/2021 15:06:00,,2680.00,1780.00,481.00,320.00,166.00,218.00,124.00,38.00,APPROVED
NE: LINCOLN,01/08/2021 16:07:00,,2668.00,1759.00,479.00,312.00,160.00,216.00,118.00,39.00,APPROVED
NE: LINCOLN,01/08/2021 17:07:00,,2682.00,1749.00,476.00,310.00,162.00,214.00,118.00,40.00,APPROVED
NE: LINCOLN,01/08/2021 18:07:00,,2521.00,1600.00,439.00,279.00,148.00,191.00,110.00,36.00,APPROVED
NE: LINCOLN,01/08/2021 19:07:00,,2399.00,1471.00,405.00,254.00,141.00,175.00,107.00,36.00,APPROVED
NE: LINCOLN,01/08/2021 20:38:00,,2302.00,1305.00,360.00,197.00,124.00,148.00,90.00,29.00,APPROVED
NE: LINCOLN,01/08/2021 21:38:00,,2325.00,1370.00,379.00,218.00,127.00,160.00,94.00,31.00,APPROVED
NE: LINCOLN,01/08/2021 22:38:00,,2319.00,1364.00,377.00,220.00,130.00,161.00,98.00,31.00,APPROVED
NE: LINCOLN,01/08/2021 23:39:00,,2341.00,1370.00,382.00,220.00,130.00,160.00,97.00,30.00,APPROVED
NE: LINCOLN,01/09/2021 00:39:00,,2344.00,1392.00,380.00,227.00,133.00,162.00,97.00,32.00,APPROVED
NE: LINCOLN,01/09/2021 01:39:00,,2361.00,1411.00,385.00,228.00,132.00,165.00,101.00,31.00,APPROVED
NE: LINCOLN,01/09/2021 02:39:00,,2373.00,1413.00,383.00,229.00,135.00,168.00,100.00,31.00,APPROVED
NE: LINCOLN,01/09/2021 03:39:00,,2369.00,1424.00,389.00,232.00,136.00,164.00,96.00,31.00,APPROVED
NE: LINCOLN,01/09/2021 04:40:00,,2438.00,1473.00,406.00,243.00,136.00,173.00,99.00,32.00,APPROVED
NE: LINCOLN,01/09/2021 05:40:00,,2433.00,1495.00,409.00,248.00,138.00,176.00,101.00,33.00,APPROVED
NE: LINCOLN,01/09/2021 06:40:00,,2405.00,1477.00,405.00,245.00,137.00,178.00,103.00,31.00,APPROVED
NE: LINCOLN,01/09/2021 07:40:00,,2385.00,1438.00,394.00,241.00,135.00,173.00,102.00,32.00,APPROVED
NE: LINCOLN,01/09/2021 08:41:00,,2344.00,1407.00,387.00,234.00,133.00,165.00,98.00,33.00,APPROVED
NE: LINCOLN,01/09/2021 09:41:00,,2338.00,1402.00,379.00,226.00,133.00,166.00,96.00,32.00,APPROVED
NE: LINCOLN,01/09/2021 10:41:00,,2344.00,1390.00,385.00,225.00,132.00,165.00,97.00,32.00,APPROVED
NE: LINCOLN,01/09/2021 11:41:00,,2352.00,1393.00,384.00,226.00,132.00,161.00,98.00,31.00,APPROVED
NE: LINCOLN,01/09/2021 12:41:00,,2390.00,1424.00,389.00,229.00,133.00,166.00,96.00,32.00,APPROVED
NE: LINCOLN,01/09/2021 13:42:00,,2396.00,1430.00,393.00,230.00,133.00,166.00,98.00,31.00,APPROVED
NE: LINCOLN,01/09/2021 14:42:00,,2404.00,1449.00,393.00,235.00,134.00,170.00,96.00,31.00,APPROVED
NE: LINCOLN,01/09/2021 15:42:00,,2407.00,1439.00,391.00,231.00,134.00,167.00,98.00,32.00,APPROVED
NE: LINCOLN,01/09/2021 16:42:00,,2391.00,1432.00,394.00,232.00,131.00,165.00,97.00,33.00,APPROVED
NE: LINCOLN,01/09/2021 17:42:00,,2381.00,1421.00,386.00,233.00,135.00,166.00,99.00,33.00,APPROVED
NE: LINCOLN,01/09/2021 18:43:00,,2378.00,1411.00,384.00,226.00,133.00,162.00,96.00,32.00,APPROVED
NE: LINCOLN,01/09/2021 19:43:00,,2360.00,1405.00,382.00,221.00,130.00,164.00,94.00,32.00,APPROVED
NE: LINCOLN,01/09/2021 20:43:00,,2359.00,1401.00,378.00,222.00,131.00,163.00,95.00,31.00,APPROVED
NE: LINCOLN,01/09/2021 21:43:00,,2372.00,1405.00,386.00,223.00,133.00,164.00,97.00,32.00,APPROVED
NE: LINCOLN,01/09/2021 22:44:00,,2381.00,1436.00,389.00,234.00,135.00,167.00,98.00,32.00,APPROVED
NE: LINCOLN,01/09/2021 23:44:00,,2425.00,1466.00,400.00,240.00,135.00,168.00,103.00,34.00,APPROVED
NE: LINCOLN,01/10/2021 00:44:00,,2439.00,1466.00,405.00,241.00,135.00,171.00,99.00,33.00,APPROVED
NE: LINCOLN,01/10/2021 01:44:00,,2438.00,1464.00,396.00,238.00,137.00,173.00,98.00,32.00,APPROVED
NE: LINCOLN,01/10/2021 02:44:00,,2430.00,1460.00,399.00,236.00,135.00,172.00,98.00,32.00,APPROVED
NE: LINCOLN,01/10/2021 03:45:00,,2455.00,1466.00,398.00,236.00,135.00,176.00,100.00,32.00,APPROVED
NE: LINCOLN,01/10/2021 04:45:00,,2467.00,1493.00,403.00,244.00,139.00,176.00,100.00,34.00,APPROVED
NE: LINCOLN,01/10/2021 05:45:00,,2482.00,1509.00,410.00,247.00,138.00,171.00,103.00,33.00,APPROVED
NE: LINCOLN,01/10/2021 06:45:00,,2513.00,1554.00,415.00,258.00,141.00,183.00,105.00,33.00,APPROVED
NE: LINCOLN,01/10/2021 08:46:00,,2516.00,1554.00,422.00,260.00,145.00,181.00,106.00,34.00,APPROVED
NE: LINCOLN,01/10/2021 09:46:00,,2520.00,1555.00,420.00,261.00,144.00,186.00,106.00,34.00,APPROVED
NE: LINCOLN,01/10/2021 10:46:00,,2517.00,1562.00,422.00,260.00,143.00,183.00,107.00,34.00,APPROVED
NE: LINCOLN,01/10/2021 11:46:00,,2567.00,1611.00,431.00,272.00,149.00,192.00,108.00,33.00,APPROVED
NE: LINCOLN,01/10/2021 12:47:00,,2579.00,1610.00,438.00,275.00,147.00,191.00,109.00,35.00,APPROVED
NE: LINCOLN,01/10/2021 13:47:00,,2627.00,1657.00,446.00,284.00,152.00,196.00,113.00,34.00,APPROVED
NE: LINCOLN,01/10/2021 14:47:00,,2696.00,1733.00,473.00,301.00,160.00,207.00,116.00,37.00,APPROVED
NE: LINCOLN,01/10/2021 15:47:00,,2669.00,1733.00,463.00,308.00,159.00,208.00,116.00,37.00,APPROVED
NE: LINCOLN,01/10/2021 16:47:00,,2634.00,1674.00,455.00,288.00,156.00,202.00,113.00,37.00,APPROVED
NE: LINCOLN,01/10/2021 17:48:00,,2616.00,1656.00,446.00,289.00,152.00,196.00,117.00,36.00,APPROVED
NE: LINCOLN,01/10/2021 18:48:00,,2630.00,1669.00,450.00,290.00,154.00,200.00,115.00,37.00,APPROVED
NE: LINCOLN,01/10/2021 19:48:00,,2617.00,1657.00,445.00,282.00,154.00,196.00,114.00,36.00,APPROVED
NE: LINCOLN,01/10/2021 20:48:00,,2563.00,1625.00,439.00,279.00,145.00,191.00,111.00,35.00,APPROVED
NE: LINCOLN,01/10/2021 21:49:00,,2517.00,1567.00,426.00,264.00,145.00,184.00,110.00,35.00,APPROVED
NE: LINCOLN,01/10/2021 22:49:00,,2528.00,1562.00,429.00,261.00,143.00,179.00,111.00,33.00,APPROVED
NE: LINCOLN,01/10/2021 23:49:00,,2516.00,1546.00,414.00,262.00,143.00,181.00,107.00,35.00,APPROVED
NE: LINCOLN,01/11/2021 00:49:00,,2427.00,1466.00,406.00,242.00,138.00,172.00,102.00,33.00,APPROVED
NE: LINCOLN,01/11/2021 01:49:00,,2408.00,1444.00,393.00,233.00,135.00,170.00,99.00,33.00,APPROVED
NE: LINCOLN,01/11/2021 02:50:00,,2423.00,1449.00,393.00,231.00,130.00,165.00,100.00,32.00,APPROVED